Time,TemperatureF,DewpointF,PressureIn,WindDirection,WindDirectionDegrees,WindSpeedMPH,WindSpeedGustMPH,Humidity,HourlyPrecipIn,Conditions,Clouds,dailyrainin,SoftwareType,DateUTC
2013-12-24 00:14:00,25.8,23.0,30.60,ENE,65,3.0,5.0,90,0.00,,,0.00,weatherlink.com 1.10,2013-12-24 06:14:00,
2013-12-24 00:29:00,25.4,23.0,30.60,ENE,67,1.0,4.0,90,0.00,,,0.00,weatherlink.com 1.10,2013-12-24 06:29:00,
2013-12-24 00:44:00,25.2,23.0,30.59,ENE,78,4.0,5.0,91,0.00,,,0.00,weatherlink.com 1.10,2013-12-24 06:44:00,
2013-12-24 00:59:00,25.2,23.0,30.59,ENE,77,2.0,4.0,91,0.00,,,0.00,weatherlink.com 1.10,2013-12-24 06:59:00,
2013-12-24 01:14:00,25.1,23.0,30.59,ENE,77,3.0,4.0,91,0.00,,,0.00,weatherlink.com 1.10,2013-12-24 07:14:00,
2013-12-24 01:29:00,24.9,23.0,30.57,ENE,77,3.0,5.0,91,0.00,,,0.00,weatherlink.com 1.10,2013-12-24 07:29:00,
2013-12-24 01:44:00,24.5,22.0,30.57,ENE,67,3.0,5.0,91,0.00,,,0.00,weatherlink.com 1.10,2013-12-24 07:44:00,
2013-12-24 01:59:00,24.4,22.0,30.57,ENE,67,3.0,7.0,92,0.00,,,0.00,weatherlink.com 1.10,2013-12-24 07:59:00,
2013-12-24 02:14:00,24.9,23.0,30.57,ENE,67,4.0,8.0,92,0.00,,,0.00,weatherlink.com 1.10,2013-12-24 08:14:00,
2013-12-24 02:29:00,25.2,23.0,30.58,NNE,12,3.0,8.0,92,0.00,,,0.00,weatherlink.com 1.10,2013-12-24 08:29:00,
2013-12-24 02:44:00,25.3,23.0,30.58,ENE,60,2.0,5.0,92,0.00,,,0.00,weatherlink.com 1.10,2013-12-24 08:44:00,
2013-12-24 02:59:00,25.4,23.0,30.59,ESE,108,0.0,4.0,91,0.00,,,0.00,weatherlink.com 1.10,2013-12-24 08:59:00,
2013-12-24 03:14:00,25.4,23.0,30.58,ESE,108,0.0,0.0,91,0.00,,,0.00,weatherlink.com 1.10,2013-12-24 09:14:00,
2013-12-24 03:29:00,25.4,23.0,30.58,ESE,108,0.0,0.0,91,0.00,,,0.00,weatherlink.com 1.10,2013-12-24 09:29:00,
2013-12-24 03:44:00,25.4,23.0,30.57,ESE,108,0.0,0.0,92,0.00,,,0.00,weatherlink.com 1.10,2013-12-24 09:44:00,
2013-12-24 03:59:00,25.5,24.0,30.57,ENE,65,3.0,5.0,92,0.00,,,0.00,weatherlink.com 1.10,2013-12-24 09:59:00,
2013-12-24 04:14:00,25.5,24.0,30.56,ENE,71,3.0,8.0,92,0.00,,,0.00,weatherlink.com 1.10,2013-12-24 10:14:00,
2013-12-24 04:29:00,25.6,24.0,30.56,ENE,72,2.0,4.0,92,0.00,,,0.00,weatherlink.com 1.10,2013-12-24 10:29:00,
2013-12-24 04:44:00,25.4,23.0,30.55,East,94,2.0,7.0,91,0.00,,,0.00,weatherlink.com 1.10,2013-12-24 10:44:00,
2013-12-24 04:59:00,25.2,23.0,30.54,East,99,3.0,6.0,91,0.00,,,0.00,weatherlink.com 1.10,2013-12-24 10:59:00,
2013-12-24 05:14:00,24.9,23.0,30.54,East,95,3.0,6.0,92,0.00,,,0.00,weatherlink.com 1.10,2013-12-24 11:14:00,
2013-12-24 05:29:00,24.8,23.0,30.54,SE,131,1.0,4.0,92,0.00,,,0.00,weatherlink.com 1.10,2013-12-24 11:29:00,
2013-12-24 05:44:00,24.4,22.0,30.54,ESE,121,2.0,8.0,92,0.00,,,0.00,weatherlink.com 1.10,2013-12-24 11:44:00,
2013-12-24 05:59:00,23.8,22.0,30.54,East,84,6.0,8.0,92,0.00,,,0.00,weatherlink.com 1.10,2013-12-24 11:59:00,
2013-12-24 06:14:00,23.6,22.0,30.53,East,86,7.0,7.0,93,0.00,,,0.00,weatherlink.com 1.10,2013-12-24 12:14:00,
2013-12-24 06:29:00,23.5,22.0,30.53,East,101,2.0,7.0,93,0.00,,,0.00,weatherlink.com 1.10,2013-12-24 12:29:00,
2013-12-24 06:44:00,23.5,22.0,30.53,SE,138,6.0,7.0,93,0.00,,,0.00,weatherlink.com 1.10,2013-12-24 12:44:00,
2013-12-24 06:59:00,23.5,22.0,30.53,ESE,118,2.0,6.0,94,0.00,,,0.00,weatherlink.com 1.10,2013-12-24 12:59:00,
2013-12-24 07:14:00,23.4,22.0,30.53,SSE,163,7.0,7.0,94,0.00,,,0.00,weatherlink.com 1.10,2013-12-24 13:14:00,
2013-12-24 07:29:00,23.3,22.0,30.53,SE,140,9.0,9.0,94,0.00,,,0.00,weatherlink.com 1.10,2013-12-24 13:29:00,
2013-12-24 07:44:00,23.4,22.0,30.53,South,173,4.0,9.0,94,0.00,,,0.00,weatherlink.com 1.10,2013-12-24 13:44:00,
2013-12-24 07:59:00,23.4,22.0,30.53,SSE,157,5.0,9.0,94,0.00,,,0.00,weatherlink.com 1.10,2013-12-24 13:59:00,
2013-12-24 08:14:00,23.1,22.0,30.52,SE,141,6.0,9.0,94,0.00,,,0.00,weatherlink.com 1.10,2013-12-24 14:14:00,
2013-12-24 08:29:00,23.3,22.0,30.52,SE,146,6.0,6.0,94,0.00,,,0.00,weatherlink.com 1.10,2013-12-24 14:29:00,
2013-12-24 08:44:00,23.4,22.0,30.52,ESE,114,4.0,8.0,94,0.00,,,0.00,weatherlink.com 1.10,2013-12-24 14:44:00,
2013-12-24 08:59:00,24.4,23.0,30.52,SE,132,5.0,6.0,94,0.00,,,0.00,weatherlink.com 1.10,2013-12-24 14:59:00,
2013-12-24 09:14:00,24.5,23.0,30.52,South,169,5.0,7.0,93,0.00,,,0.00,weatherlink.com 1.10,2013-12-24 15:14:00,
2013-12-24 09:29:00,25.4,23.0,30.52,SE,127,4.0,7.0,92,0.00,,,0.00,weatherlink.com 1.10,2013-12-24 15:29:00,
2013-12-24 09:44:00,26.9,24.0,30.52,South,180,5.0,8.0,89,0.00,,,0.00,weatherlink.com 1.10,2013-12-24 15:44:00,
2013-12-24 09:59:00,28.2,25.0,30.52,SE,144,3.0,7.0,88,0.00,,,0.00,weatherlink.com 1.10,2013-12-24 15:59:00,
2013-12-24 10:14:00,29.6,26.0,30.51,ESE,123,3.0,8.0,85,0.00,,,0.00,weatherlink.com 1.10,2013-12-24 16:14:00,
2013-12-24 10:29:00,31.1,26.0,30.50,SE,136,7.0,10.0,82,0.00,,,0.00,weatherlink.com 1.10,2013-12-24 16:29:00,
2013-12-24 10:45:00,32.1,26.0,30.50,SSE,151,8.0,13.0,79,0.00,,,0.00,weatherlink.com 1.10,2013-12-24 16:45:00,
2013-12-24 11:00:00,33.5,27.0,30.48,SSE,149,6.0,15.0,77,0.00,,,0.00,weatherlink.com 1.10,2013-12-24 17:00:00,
2013-12-24 11:15:00,33.9,27.0,30.48,SSE,163,8.0,13.0,77,0.00,,,0.00,weatherlink.com 1.10,2013-12-24 17:15:00,
2013-12-24 11:30:00,35.4,29.0,30.47,SSE,167,9.0,12.0,76,0.00,,,0.00,weatherlink.com 1.10,2013-12-24 17:30:00,
2013-12-24 11:45:00,35.9,29.0,30.45,SSE,163,8.0,14.0,75,0.00,,,0.00,weatherlink.com 1.10,2013-12-24 17:45:00,
2013-12-24 12:00:00,36.7,29.0,30.44,SE,133,7.0,15.0,75,0.00,,,0.00,weatherlink.com 1.10,2013-12-24 18:00:00,
2013-12-24 12:15:00,38.2,31.0,30.41,SSE,155,8.0,12.0,74,0.00,,,0.00,weatherlink.com 1.10,2013-12-24 18:15:00,
2013-12-24 12:30:00,40.1,31.0,30.39,SE,129,6.0,18.0,71,0.00,,,0.00,weatherlink.com 1.10,2013-12-24 18:30:00,
2013-12-24 12:45:00,41.3,32.0,30.37,SSE,163,2.0,17.0,69,0.00,,,0.00,weatherlink.com 1.10,2013-12-24 18:45:00,
2013-12-24 13:00:00,42.3,32.0,30.36,South,184,4.0,17.0,68,0.00,,,0.00,weatherlink.com 1.10,2013-12-24 19:00:00,
2013-12-24 13:15:00,43.5,33.0,30.34,SSE,167,13.0,17.0,67,0.00,,,0.00,weatherlink.com 1.10,2013-12-24 19:15:00,
2013-12-24 13:30:00,44.3,33.0,30.33,SSE,162,5.0,20.0,65,0.00,,,0.00,weatherlink.com 1.10,2013-12-24 19:30:00,
2013-12-24 13:45:00,45.2,34.0,30.31,SE,142,11.0,16.0,65,0.00,,,0.00,weatherlink.com 1.10,2013-12-24 19:45:00,
2013-12-24 14:00:00,45.9,34.0,30.30,South,169,12.0,21.0,64,0.00,,,0.00,weatherlink.com 1.10,2013-12-24 20:00:00,
2013-12-24 14:15:00,46.6,34.0,30.29,SE,135,8.0,19.0,63,0.00,,,0.00,weatherlink.com 1.10,2013-12-24 20:15:00,
2013-12-24 14:30:00,47.3,34.0,30.28,South,184,7.0,16.0,61,0.00,,,0.00,weatherlink.com 1.10,2013-12-24 20:30:00,
2013-12-24 14:45:00,47.8,35.0,30.28,South,180,2.0,18.0,61,0.00,,,0.00,weatherlink.com 1.10,2013-12-24 20:45:00,
2013-12-24 15:01:00,47.9,35.0,30.27,SSE,150,13.0,20.0,61,0.00,,,0.00,weatherlink.com 1.10,2013-12-24 21:01:00,
2013-12-24 15:16:00,48.5,35.0,30.27,SSE,166,1.0,22.0,59,0.00,,,0.00,weatherlink.com 1.10,2013-12-24 21:16:00,
2013-12-24 15:31:00,49.0,35.0,30.26,South,169,10.0,18.0,59,0.00,,,0.00,weatherlink.com 1.10,2013-12-24 21:31:00,
2013-12-24 15:46:00,49.4,35.0,30.25,SSE,160,8.0,19.0,58,0.00,,,0.00,weatherlink.com 1.10,2013-12-24 21:46:00,
2013-12-24 16:01:00,49.2,35.0,30.25,South,170,5.0,18.0,59,0.00,,,0.00,weatherlink.com 1.10,2013-12-24 22:01:00,
2013-12-24 16:16:00,49.0,35.0,30.24,South,183,9.0,21.0,58,0.00,,,0.00,weatherlink.com 1.10,2013-12-24 22:16:00,
2013-12-24 16:31:00,48.8,35.0,30.24,SSE,161,8.0,19.0,59,0.00,,,0.00,weatherlink.com 1.10,2013-12-24 22:31:00,
2013-12-24 16:46:00,48.6,35.0,30.23,SSE,147,8.0,19.0,59,0.00,,,0.00,weatherlink.com 1.10,2013-12-24 22:46:00,
2013-12-24 17:01:00,48.1,35.0,30.23,SSE,148,5.0,15.0,60,0.00,,,0.00,weatherlink.com 1.10,2013-12-24 23:01:00,
2013-12-24 17:16:00,46.8,35.0,30.23,SSE,147,5.0,11.0,63,0.00,,,0.00,weatherlink.com 1.10,2013-12-24 23:16:00,
2013-12-24 17:31:00,45.7,34.0,30.23,SSE,155,7.0,11.0,65,0.00,,,0.00,weatherlink.com 1.10,2013-12-24 23:31:00,
2013-12-24 17:46:00,45.1,34.0,30.23,SSE,147,3.0,8.0,66,0.00,,,0.00,weatherlink.com 1.10,2013-12-24 23:46:00,
2013-12-24 18:01:00,44.4,34.0,30.23,SE,138,5.0,8.0,67,0.00,,,0.00,weatherlink.com 1.10,2013-12-25 00:01:00,
2013-12-24 18:16:00,44.1,34.0,30.23,SE,143,10.0,12.0,67,0.00,,,0.00,weatherlink.com 1.10,2013-12-25 00:16:00,
2013-12-24 18:31:00,44.0,34.0,30.23,SE,136,5.0,12.0,67,0.00,,,0.00,weatherlink.com 1.10,2013-12-25 00:31:00,
2013-12-24 18:46:00,43.7,33.0,30.23,SSE,153,5.0,9.0,67,0.00,,,0.00,weatherlink.com 1.10,2013-12-25 00:46:00,
2013-12-24 19:01:00,43.6,34.0,30.23,SE,144,3.0,10.0,68,0.00,,,0.00,weatherlink.com 1.10,2013-12-25 01:01:00,
2013-12-24 19:16:00,43.2,33.0,30.23,SSE,158,1.0,9.0,68,0.00,,,0.00,weatherlink.com 1.10,2013-12-25 01:16:00,
2013-12-24 19:31:00,42.8,33.0,30.23,SE,135,5.0,9.0,69,0.00,,,0.00,weatherlink.com 1.10,2013-12-25 01:31:00,
2013-12-24 19:46:00,42.6,34.0,30.23,SSE,161,3.0,7.0,71,0.00,,,0.00,weatherlink.com 1.10,2013-12-25 01:46:00,
2013-12-24 20:01:00,42.5,34.0,30.23,SE,146,4.0,10.0,71,0.00,,,0.00,weatherlink.com 1.10,2013-12-25 02:01:00,
2013-12-24 20:16:00,42.4,34.0,30.23,SE,136,3.0,8.0,72,0.00,,,0.00,weatherlink.com 1.10,2013-12-25 02:16:00,
2013-12-24 20:31:00,42.4,34.0,30.24,South,169,5.0,12.0,72,0.00,,,0.00,weatherlink.com 1.10,2013-12-25 02:31:00,
2013-12-24 20:46:00,42.4,34.0,30.23,SSE,166,0.0,11.0,72,0.00,,,0.00,weatherlink.com 1.10,2013-12-25 02:46:00,
2013-12-24 21:01:00,42.6,34.0,30.23,South,171,2.0,11.0,72,0.00,,,0.00,weatherlink.com 1.10,2013-12-25 03:01:00,
2013-12-24 21:16:00,42.5,34.0,30.24,SSE,163,6.0,12.0,72,0.00,,,0.00,weatherlink.com 1.10,2013-12-25 03:16:00,
2013-12-24 21:31:00,42.7,34.0,30.24,SSE,161,7.0,14.0,71,0.00,,,0.00,weatherlink.com 1.10,2013-12-25 03:31:00,
2013-12-24 21:46:00,42.7,34.0,30.24,South,177,6.0,11.0,71,0.00,,,0.00,weatherlink.com 1.10,2013-12-25 03:46:00,
2013-12-24 22:01:00,42.6,33.0,30.24,South,171,6.0,10.0,70,0.00,,,0.00,weatherlink.com 1.10,2013-12-25 04:01:00,
2013-12-24 22:16:00,42.5,33.0,30.24,South,173,8.0,11.0,70,0.00,,,0.00,weatherlink.com 1.10,2013-12-25 04:16:00,
2013-12-24 22:31:00,42.4,33.0,30.25,SSE,164,4.0,11.0,70,0.00,,,0.00,weatherlink.com 1.10,2013-12-25 04:31:00,
2013-12-24 22:46:00,42.0,33.0,30.25,SSE,164,6.0,8.0,71,0.00,,,0.00,weatherlink.com 1.10,2013-12-25 04:46:00,
2013-12-24 23:01:00,41.6,33.0,30.24,SSE,157,5.0,8.0,71,0.00,,,0.00,weatherlink.com 1.10,2013-12-25 05:01:00,
2013-12-24 23:16:00,41.4,33.0,30.24,SSE,153,5.0,7.0,71,0.00,,,0.00,weatherlink.com 1.10,2013-12-25 05:16:00,
2013-12-24 23:31:00,41.3,33.0,30.25,SSE,152,2.0,7.0,71,0.00,,,0.00,weatherlink.com 1.10,2013-12-25 05:31:00,
2013-12-24 23:46:00,40.7,32.0,30.25,SSE,148,0.0,4.0,72,0.00,,,0.00,weatherlink.com 1.10,2013-12-25 05:46:00,